Location: Elkol
(41.7238°N, 110.6124°W)
Time: 10:33:37
(UTC+00:00)

N. Korean satellite - Visible Passes

Search period start: 18 January 2022 00:00
Search period end: 28 January 2022 00:00
Orbit: 446 x 492 km, 97.3° (Epoch: 17 January)

Date Brightness Start Highest point End Pass type
(mag) Time Alt. Az. Time Alt. Az. Time Alt. Az.
18 Jan 8.9 12:52:07 10° N 13:00:49 - SSW 12:52:38 14° N visible
19 Jan 10.4 01:02:21 10° W 01:02:42 10° W 01:03:03 10° W visible
19 Jan 9.2 12:23:03 10° NNE 12:31:29 - S 12:23:35 14° NNE visible
20 Jan 9.7 11:54:29 10° NE 12:02:06 - SSE 11:54:30 10° NE visible
20 Jan 8.5 13:27:35 10° NNW 13:28:33 15° NNW 13:28:33 15° NNW visible
21 Jan 8.2 12:57:56 10° N 13:06:45 - SSW 12:59:27 23° N visible
22 Jan 8.4 12:28:45 10° NNE 12:37:21 - S 12:30:22 25° NNE visible
23 Jan 9.2 12:00:00 10° NE 12:07:54 - SSE 12:01:15 18° NE visible
23 Jan 8.1 13:33:26 10° NNW 13:35:19 18° NW 13:35:19 18° NW visible
24 Jan 7.3 13:03:37 10° N 13:12:28 - SSW 13:06:12 35° NW visible
25 Jan 7.1 12:34:17 10° NNE 12:42:57 - S 12:37:06 51° NNE visible
26 Jan 8.5 12:05:22 10° NNE 12:13:25 - S 12:08:00 29° ENE visible
26 Jan 8.1 13:39:09 10° NNW 13:41:32 17° WNW 13:42:03 16° WNW visible
27 Jan 9.7 11:37:16 10° ENE 11:43:51 - SSE 11:38:53 14° E visible
27 Jan 7.1 13:09:08 10° N 13:12:30 36° WNW 13:12:57 34° W visible
